Location: Wingville
(42.9917°N, 90.4915°W)
Time: 03:11:20
(UTC+00:00)

UWE-3 - Pass Details

Date: 04 July 2022
Orbit: 583 x 677 km, 97.7° (Epoch: 11 August)

Event Time Altitude Azimuth Distance (km) Brightness Sun altitude
Rises 08:08:09 0° 34° (NE) 2,918 ? -18.4°
Reaches altitude 10° 08:11:39 10° 64° (ENE) 2,028 ? -18.1°
Maximum altitude 08:13:32 13° 90° (E) 1,873 ? -17.9°
Drops below altitude 10° 08:15:26 10° 115° (ESE) 2,046 ? -17.8°
Enters shadow 08:18:46 - 144° (SE) 2,902 ? -17.4°
